KT2UU-13 Weather Reports


time (UTC)temp
C
wind
direction
speed
KPH
gust
KPH
rain 1hr
cm
rain 24hr
cm
rain mn
cm
humidity
%
barometer
mb
20260507033940 17 243 0.0 0.0 0.00 3.38 3.38 99 1013.8
20260507033438 17 243 0.0 0.0 0.00 3.38 3.38 99 1013.5
20260507032934 17 243 0.0 0.0 0.00 3.38 3.38 99 1013.7
20260507032432 17 243 0.0 0.0 0.00 3.38 3.38 99 1013.8
20260507031927 17 243 0.0 0.0 0.00 3.38 3.38 99 1013.7
20260507031426 17 243 0.0 0.0 0.00 3.38 3.38 99 1013.8
20260507030921 17 243 0.0 0.0 0.00 3.38 3.38 99 1013.9
20260507030418 17 243 0.0 0.0 0.00 3.38 3.38 99 1014.0
20260507025915 17 251 0.0 1.6 0.00 3.38 3.38 99 1013.9
20260507025413 17 251 0.0 0.0 0.00 3.38 3.38 99 1013.8
20260507024910 17 251 0.0 1.6 0.00 3.38 3.38 99 1014.3
20260507024407 17 251 0.0 0.0 0.00 3.38 3.38 99 1014.3
20260507023903 17 258 0.0 0.0 0.00 3.38 3.38 99 1014.3
20260507023400 17 1 0.0 1.6 0.00 3.38 3.38 99 1014.2
20260507022857 17 1 0.0 0.0 0.00 3.38 3.38 99 1014.1
20260507022354 17 1 0.0 0.0 0.00 3.38 3.38 99 1014.7
20260507021850 17 1 0.0 0.0 0.00 3.38 3.38 99 1014.3
20260507021345 17 1 0.0 0.0 0.00 3.38 3.38 99 1014.0
20260507020843 17 1 0.0 0.0 0.00 3.38 3.38 99 1014.1
20260507020339 17 1 0.0 0.0 0.00 3.38 3.38 99 1014.0
20260507015837 17 1 0.0 0.0 0.00 3.38 3.38 99 1014.5
20260507015335 17 1 0.0 4.8 0.18 3.38 3.38 99 1014.2
20260507014831 17 2 1.6 4.8 0.18 3.38 3.38 99 1013.9
20260507014328 17 34 1.6 3.2 0.30 3.35 3.35 99 1013.9
20260507013824 17 19 3.2 4.8 0.30 3.35 3.35 99 1013.9
20260507013321 17 25 1.6 3.2 0.13 3.30 3.30 99 1014.2
20260507012819 17 21 1.6 3.2 0.71 3.30 3.30 99 1014.1
20260507012314 17 9 1.6 3.2 0.97 3.28 3.28 99 1014.3
20260507011806 17 9 0.0 3.2 1.07 3.17 3.17 99 1014.3
20260507011303 17 342 0.0 3.2 1.37 3.10 3.10 99 1014.6
20260507010802 17 359 1.6 3.2 0.71 2.97 2.97 99 1013.9
20260507010259 17 347 1.6 3.2 0.36 2.84 2.84 99 1014.2
20260507005756 17 11 0.0 3.2 0.30 2.82 2.82 99 1014.5
20260507005252 17 1 0.0 4.8 0.13 2.79 2.79 99 1014.7
20260507004749 17 327 1.6 3.2 0.18 2.77 2.77 99 1014.6
20260507004247 17 4 0.0 3.2 0.61 2.77 2.77 99 1014.5
20260507003743 17 355 0.0 3.2 1.80 2.74 2.74 99 1014.8
20260507003238 17 7 0.0 0.0 2.11 2.64 2.64 99 1014.8
20260507002734 17 1 0.0 0.0 1.07 2.39 2.39 99 1014.7
20260507002231 17 3 1.6 1.6 0.61 2.29 2.29 99 1014.6
20260507001727 17 3 1.6 1.6 0.61 2.21 2.21 99 1014.7
20260507001225 17 1 0.0 3.2 2.16 2.18 2.18 99 1014.7
20260507000721 17 348 1.6 4.8 6.65 2.08 2.08 99 1014.7
20260507000216 17 231 0.0 3.2 5.23 1.68 1.68 99 1014.6
20260506235714 17 270 0.0 1.6 0.79 0.89 0.89 99 1014.9
20260506235209 17 270 1.6 1.6 0.89 0.81 0.81 99 1014.4
20260506234706 17 311 1.6 3.2 1.37 0.74 0.74 99 1014.3
20260506234204 17 348 0.0 4.8 1.50 0.66 0.66 99 1013.8
20260506233701 18 345 0.0 1.6 0.43 0.48 0.48 99 1014.1
20260506233157 17 317 0.0 1.6 0.18 0.41 0.41 99 1014.2
20260506232654 17 355 0.0 0.0 0.48 0.41 0.41 99 1014.1
20260506232149 18 353 4.8 4.8 0.30 0.38 0.38 99 1014.3
20260506231646 18 263 1.6 3.2 0.00 0.33 0.33 99 1014.5
20260506231145 18 188 0.0 1.6 0.30 0.33 0.33 99 1013.9
20260506230641 18 331 0.0 0.0 0.30 0.33 0.33 98 1013.1
20260506230138 18 233 0.0 0.0 1.07 0.28 0.28 98 1013.3
20260506225635 18 268 0.0 0.0 0.43 0.15 0.15 97 1013.7
20260506225132 18 335 0.0 0.0 0.13 0.10 0.10 97 1013.4
20260506224628 18 349 3.2 3.2 0.00 0.08 0.08 97 1013.1
20260506224125 18 4 0.0 1.6 0.00 0.08 0.08 97 1013.2
20260506223621 18 0 0.0 3.2 0.00 0.08 0.08 96 1013.3
20260506223117 18 356 0.0 1.6 0.00 0.08 0.08 96 1013.2
20260506222614 18 349 0.0 0.0 0.00 0.08 0.08 96 1013.3
20260506222111 18 349 0.0 4.8 0.00 0.08 0.08 95 1013.2
20260506221608 18 354 0.0 1.6 0.00 0.08 0.08 95 1013.5
20260506221106 18 348 1.6 4.8 0.00 0.08 0.08 94 1013.3
20260506220602 18 351 3.2 4.8 0.00 0.08 0.08 94 1013.5
20260506220057 18 350 0.0 3.2 0.00 0.08 0.08 93 1013.5
20260506215554 18 350 0.0 1.6 0.00 0.08 0.08 93 1013.7
20260506215050 18 353 0.0 3.2 0.00 0.08 0.08 92 1013.6
20260506214547 19 350 0.0 4.8 0.00 0.08 0.08 91 1013.7
20260506214044 19 251 0.0 3.2 0.00 0.08 0.08 91 1013.6
20260506213543 19 250 0.0 1.6 0.00 0.08 0.08 91 1013.5
20260506213040 19 207 0.0 1.6 0.00 0.08 0.08 90 1013.2
20260506212536 19 207 1.6 3.2 0.00 0.08 0.08 89 1013.4
20260506212031 19 248 0.0 3.2 0.00 0.08 0.08 89 1013.4
20260506211527 19 204 0.0 4.8 0.18 0.08 0.08 89 1013.5
20260506211025 20 199 0.0 3.2 0.30 0.08 0.08 87 1013.5
20260506210521 20 285 8.0 14.5 0.13 0.05 0.05 83 1013.4
20260506210018 20 210 8.0 11.3 0.00 0.03 0.03 83 1013.4
20260506205515 21 201 4.8 12.9 0.00 0.03 0.03 81 1013.4
20260506205010 21 241 6.4 14.5 0.00 0.03 0.03 81 1013.2
20260506204508 22 260 3.2 16.1 0.00 0.03 0.03 80 1013.3
20260506204005 25 239 0.0 4.8 0.00 0.03 0.03 80 1013.3
20260506203503 25 207 0.0 4.8 0.00 0.03 0.03 80 1013.2
20260506202959 25 190 0.0 3.2 0.00 0.03 0.03 80 1013.2
20260506202456 25 109 0.0 3.2 0.00 0.03 0.03 79 1013.2
20260506201952 25 93 0.0 1.6 0.00 0.03 0.03 79 1013.1
20260506201450 25 105 0.0 1.6 0.00 0.03 0.03 79 1013.3
20260506200947 24 124 1.6 3.2 0.00 0.03 0.03 79 1013.4
20260506200443 24 206 0.0 3.2 0.00 0.03 0.03 80 1013.4
20260506195939 24 190 1.6 3.2 0.00 0.03 0.03 81 1013.5
20260506195436 25 122 3.2 3.2 0.00 0.03 0.03 80 1013.5
20260506194933 25 104 0.0 4.8 0.00 0.03 0.03 79 1013.2
20260506194431 25 86 3.2 4.8 0.00 0.03 0.03 78 1013.7
20260506193927 24 226 1.6 3.2 0.00 0.03 0.03 79 1013.6
20260506193425 24 112 4.8 4.8 0.00 0.03 0.03 80 1013.6
20260506192921 24 121 0.0 3.2 0.00 0.03 0.03 81 1013.9
20260506192418 24 88 1.6 3.2 0.00 0.03 0.03 80 1013.9
20260506191914 25 336 3.2 4.8 0.00 0.03 0.03 79 1013.7
20260506191410 25 91 0.0 0.0 0.00 0.03 0.03 79 1013.9
20260506190908 24 69 0.0 0.0 0.00 0.03 0.03 81 1013.9
20260506190404 24 91 0.0 0.0 0.00 0.03 0.03 81 1014.3
20260506185901 23 115 0.0 0.0 0.00 0.03 0.03 81 1014.1
20260506185358 23 115 1.6 3.2 0.00 0.03 0.03 83 1014.3
20260506184850 23 114 0.0 1.6 0.00 0.03 0.03 83 1014.6
20260506184346 23 156 3.2 3.2 0.00 0.03 0.03 83 1014.5
20260506183844 23 157 0.0 0.0 0.00 0.03 0.03 83 1014.2
20260506183338 23 157 0.0 1.6 0.00 0.03 0.03 84 1014.7
20260506182831 23 108 0.0 0.0 0.00 0.03 0.03 83 1014.8
20260506182328 23 108 0.0 0.0 0.00 0.03 0.03 84 1014.9
20260506181825 23 127 0.0 1.6 0.00 0.03 0.03 84 1015.0
20260506181323 23 108 0.0 1.6 0.00 0.03 0.03 84 1015.2
20260506180820 23 157 0.0 0.0 0.00 0.03 0.03 85 1015.5
20260506180316 23 161 0.0 0.0 0.00 0.03 0.03 84 1015.5
20260506175812 23 204 3.2 3.2 0.00 0.03 0.03 84 1015.5
20260506175309 23 212 3.2 4.8 0.00 0.03 0.03 83 1015.4
20260506174807 23 108 1.6 3.2 0.00 0.03 0.03 82 1015.4
20260506174304 23 94 0.0 0.0 0.00 0.03 0.03 82 1015.3
20260506173801 23 187 0.0 4.8 0.00 0.03 0.03 83 1015.3
20260506173258 23 150 0.0 3.2 0.00 0.03 0.03 84 1015.5
20260506172755 23 103 3.2 4.8 0.00 0.03 0.03 85 1015.3
20260506172251 22 113 0.0 4.8 0.00 0.03 0.03 86 1015.3
20260506171749 22 357 1.6 1.6 0.00 0.03 0.03 87 1015.1
20260506171246 22 358 1.6 3.2 0.00 0.03 0.03 87 1015.2
20260506170744 22 213 0.0 0.0 0.00 0.03 0.03 89 1015.1
20260506170240 21 213 0.0 1.6 0.00 0.03 0.03 89 1014.9
20260506165738 21 200 0.0 0.0 0.00 0.03 0.03 90 1015.0
20260506165235 21 134 0.0 0.0 0.00 0.03 0.03 92 1015.0
20260506164732 21 195 0.0 0.0 0.00 0.03 0.03 92 1015.0
20260506164229 21 195 0.0 0.0 0.00 0.03 0.03 93 1015.3
20260506163726 21 187 0.0 0.0 0.00 0.03 0.03 93 1015.4
20260506163220 20 195 0.0 1.6 0.00 0.03 0.03 93 1015.2
20260506162717 20 195 0.0 0.0 0.00 0.03 0.03 94 1015.4
20260506162214 20 195 0.0 1.6 0.00 0.03 0.03 94 1015.5
20260506161712 20 195 0.0 0.0 0.00 0.03 0.03 93 1015.5
20260506161209 20 220 0.0 3.2 0.00 0.03 0.03 93 1015.8
20260506160706 20 181 4.8 4.8 0.00 0.03 0.03 93 1016.0
20260506160202 20 209 0.0 3.2 0.00 0.03 0.03 92 1015.9
20260506155701 20 185 0.0 0.0 0.00 0.03 0.03 92 1015.8
20260506155158 19 6 0.0 1.6 0.00 0.03 0.03 96 1015.0
20260506153306 19 6 0.0 0.0 0.00 0.03 0.03 97 1015.1
20260506152803 18 6 0.0 0.0 0.00 0.03 0.03 97 1014.9
20260506152300 18 6 0.0 1.6 0.00 0.03 0.03 97 1015.6
20260506151759 18 6 0.0 0.0 0.00 0.03 0.03 97 1015.5
20260506151255 18 46 1.6 1.6 0.00 0.03 0.03 97 1015.4
20260506150751 18 147 0.0 0.0 0.00 0.03 0.03 97 1017.0
20260506150249 18 159 0.0 1.6 0.00 0.03 0.03 96 1016.8
20260506145746 18 153 0.0 0.0 0.00 0.03 0.03 96 1017.1
20260506145242 18 153 1.6 1.6 0.00 0.03 0.03 96 1016.6
20260506144740 18 153 0.0 1.6 0.18 0.03 0.03 95 1016.3
20260506144237 18 220 0.0 1.6 0.18 0.03 0.03 94 1016.5
20260506143734 19 158 1.6 4.8 0.00 0.00 0.00 93 1016.6
20260506143231 19 58 0.0 0.0 0.00 0.00 0.00 92 1015.8
20260506142730 19 58 0.0 0.0 0.00 0.00 0.00 92 1015.8
20260506142228 19 106 1.6 1.6 0.00 0.00 0.00 91 1015.0
20260506141725 19 87 0.0 0.0 0.00 0.00 0.00 90 1016.0
20260506141224 19 129 0.0 0.0 0.00 0.00 0.00 88 1016.3
20260506140721 19 129 0.0 0.0 0.00 0.00 0.00 88 1015.9
20260506140218 19 130 1.6 3.2 0.00 0.00 0.00 87 1016.0
20260506135714 19 109 0.0 0.0 0.00 0.00 0.00 87 1016.0
20260506135211 19 122 3.2 4.8 0.00 0.00 0.00 86 1015.8
20260506134708 19 123 3.2 4.8 0.00 0.00 0.00 86 1015.6
20260506134204 20 131 0.0 3.2 0.00 0.00 0.00 85 1015.6
20260506133701 20 141 3.2 4.8 0.00 0.00 0.00 85 1015.6
20260506133157 20 125 0.0 0.0 0.00 0.00 0.00 85 1015.2
20260506132655 20 122 1.6 3.2 0.00 0.00 0.00 84 1015.5
20260506132151 20 122 1.6 3.2 0.00 0.00 0.00 84 1014.9
20260506131649 19 126 0.0 3.2 0.00 0.00 0.00 84 1015.0
20260506131145 19 118 0.0 1.6 0.00 0.00 0.00 84 1015.3
20260506130642 19 110 1.6 1.6 0.00 0.00 0.00 84 1015.4
20260506130140 19 140 1.6 3.2 0.00 0.00 0.00 84 1015.4
20260506125638 19 139 0.0 1.6 0.00 0.00 0.00 84 1015.2
20260506125135 19 141 0.0 1.6 0.00 0.00 0.00 84 1015.1
20260506124633 19 141 0.0 0.0 0.00 0.00 0.00 84 1014.9
20260506124131 19 137 0.0 1.6 0.00 0.00 0.00 84 1014.8
20260506123628 19 152 1.6 3.2 0.00 0.00 0.00 83 1014.9
20260506123127 19 143 0.0 0.0 0.00 0.00 0.00 84 1014.6
20260506122623 19 153 0.0 1.6 0.00 0.00 0.00 84 1014.7
20260506122121 19 138 0.0 0.0 0.00 0.00 0.00 83 1014.6
20260506121618 19 138 0.0 0.0 0.00 0.00 0.00 83 1014.6
20260506121114 19 138 0.0 0.0 0.00 0.00 0.00 83 1014.6
20260506120613 19 138 0.0 0.0 0.00 0.00 0.00 83 1014.7
20260506120110 19 137 0.0 0.0 0.00 0.00 0.00 83 1014.7
20260506115608 19 137 0.0 0.0 0.00 0.00 0.00 83 1014.7
20260506115106 19 140 0.0 0.0 0.00 0.00 0.00 82 1014.5
20260506114603 19 140 0.0 0.0 0.00 0.00 0.00 82 1014.6
20260506114101 19 139 0.0 1.6 0.00 0.00 0.00 82 1014.5
20260506113558 19 138 0.0 0.0 0.00 0.00 0.00 82 1014.4
20260506113055 19 138 0.0 0.0 0.00 0.00 0.00 81 1014.6
20260506112552 19 138 0.0 0.0 0.00 0.00 0.00 82 1014.5
20260506112049 19 138 0.0 0.0 0.00 0.00 0.00 82 1014.4
20260506111547 19 138 0.0 0.0 0.00 0.00 0.00 81 1014.3
20260506111044 19 138 0.0 0.0 0.00 0.00 0.00 81 1014.1
20260506110542 19 138 0.0 0.0 0.00 0.00 0.00 81 1014.2
20260506110039 19 138 0.0 0.0 0.00 0.00 0.00 82 1014.2
20260506105535 19 138 0.0 0.0 0.00 0.00 0.00 82 1013.8
20260506105032 19 138 0.0 0.0 0.00 0.00 0.00 81 1013.7
20260506104530 19 138 0.0 0.0 0.00 0.00 0.00 81 1013.7
20260506104028 19 138 0.0 0.0 0.00 0.00 0.00 82 1013.7
20260506103525 19 137 0.0 0.0 0.00 0.00 0.00 82 1013.5
20260506103021 19 137 0.0 0.0 0.00 0.00 0.00 82 1013.6
20260506102520 19 138 0.0 0.0 0.00 0.00 0.00 81 1013.7
20260506102011 19 137 0.0 0.0 0.00 0.00 0.00 81 1013.5
20260506101508 19 137 0.0 0.0 0.00 0.00 0.00 80 1013.7
20260506101005 19 138 0.0 0.0 0.00 0.00 0.00 80 1013.7
20260506100503 19 137 0.0 0.0 0.00 0.00 0.00 80 1013.8
20260506100001 19 137 0.0 0.0 0.00 0.00 0.00 80 1013.6
20260506095500 19 147 0.0 0.0 0.00 0.00 0.00 80 1013.5
20260506094955 19 141 0.0 1.6 0.00 0.00 0.00 80 1013.6
20260506094454 19 140 0.0 0.0 0.00 0.00 0.00 80 1013.7
20260506093951 19 154 0.0 0.0 0.00 0.00 0.00 80 1013.4
20260506093449 19 140 0.0 1.6 0.00 0.00 0.00 80 1013.2
20260506092946 19 142 0.0 0.0 0.00 0.00 0.00 79 1013.4
20260506092444 19 140 1.6 1.6 0.00 0.00 0.00 79 1013.1
20260506091940 19 141 0.0 0.0 0.00 0.00 0.00 79 1013.2
20260506091439 19 141 0.0 1.6 0.00 0.00 0.00 79 1013.0
20260506090936 19 143 1.6 3.2 0.00 0.00 0.00 79 1013.1
20260506090434 19 152 0.0 1.6 0.00 0.00 0.00 79 1013.0
20260506085930 19 152 0.0 1.6 0.00 0.00 0.00 79 1013.1
20260506085427 19 152 0.0 1.6 0.00 0.00 0.00 79 1013.0
20260506084923 19 152 0.0 0.0 0.00 0.00 0.00 79 1013.0
20260506084420 18 147 0.0 0.0 0.00 0.00 0.00 80 1012.9
20260506083916 18 147 0.0 0.0 0.00 0.00 0.00 79 1012.9
20260506083414 18 147 0.0 0.0 0.00 0.00 0.00 79 1013.0
20260506082911 18 147 0.0 0.0 0.00 0.00 0.00 78 1013.0
20260506082408 18 147 0.0 0.0 0.00 0.00 0.00 78 1013.0
20260506081903 18 147 0.0 0.0 0.00 0.00 0.00 78 1013.2
20260506081402 18 147 0.0 0.0 0.00 0.00 0.00 78 1012.9
20260506080859 18 147 0.0 0.0 0.00 0.00 0.00 79 1013.2
20260506080355 18 147 0.0 0.0 0.00 0.00 0.00 78 1013.1
20260506073339 18 147 0.0 0.0 0.00 0.00 0.00 76 1013.1
20260506072836 18 147 0.0 0.0 0.00 0.00 0.00 76 1013.1
20260506072334 19 147 0.0 0.0 0.00 0.00 0.00 74 1013.3
20260506071831 19 147 0.0 0.0 0.00 0.00 0.00 74 1013.1
20260506071329 19 147 0.0 0.0 0.00 0.00 0.00 73 1013.4
20260506070820 19 146 0.0 1.6 0.00 0.00 0.00 72 1013.2
20260506070317 19 145 0.0 1.6 0.00 0.00 0.00 71 1013.1
20260506062254 20 112 0.0 1.6 0.00 0.00 0.00 66 1013.7
20260506061750 20 112 0.0 1.6 0.00 0.00 0.00 65 1013.7
20260506061247 20 115 0.0 1.6 0.00 0.00 0.00 64 1013.8
20260506060746 20 118 0.0 1.6 0.00 0.00 0.00 64 1013.8
20260506060243 21 118 0.0 1.6 0.00 0.00 0.00 62 1014.2
20260506051209 21 121 0.0 1.6 0.00 0.00 0.00 57 1014.1
20260506050707 21 98 0.0 0.0 0.00 0.00 0.00 57 1014.1
20260506050204 21 94 0.0 0.0 0.00 0.00 0.00 57 1014.0
20260506044655 21 99 1.6 3.2 0.00 0.00 0.00 55 1014.1
20260506044151 21 351 1.6 1.6 0.00 0.00 0.00 57 1014.2
20260506043649 21 83 0.0 1.6 0.00 0.00 0.00 56 1013.9
20260506043147 21 11 1.6 3.2 0.00 0.00 0.00 56 1013.8
20260506042646 21 24 1.6 1.6 0.00 0.00 0.00 56 1013.9
20260506042143 21 20 0.0 1.6 0.00 0.00 0.00 55 1014.1
20260506041642 21 257 0.0 0.0 0.00 0.00 0.00 55 1013.9
20260506041138 21 258 0.0 1.6 0.00 0.00 0.00 56 1014.2
20260506040636 21 258 0.0 3.2 0.00 0.00 0.00 55 1014.2
20260506040132 21 39 0.0 3.2 0.00 0.00 0.00 55 1014.2
20260506035629 21 30 0.0 0.0 0.00 0.00 0.00 55 1014.2
20260506035125 21 356 1.6 1.6 0.00 0.00 0.00 55 1014.4
20260506034623 21 24 0.0 1.6 0.00 0.00 0.00 55 1014.1